Time,TemperatureF,DewpointF,PressureIn,WindDirection,WindDirectionDegrees,WindSpeedMPH,WindSpeedGustMPH,Humidity,HourlyPrecipIn,Conditions,Clouds,dailyrainin,SoftwareType,DateUTC
2013-08-27 00:00:00,69.6,66.9,29.85,SW,219,5.0,14.0,91,0.00,,,0.00,Wunderground v.1.15,2013-08-27 04:00:00,
2013-08-27 00:02:00,69.6,66.9,29.85,WNW,300,6.0,14.0,91,0.00,,,0.00,Wunderground v.1.15,2013-08-27 04:02:00,
2013-08-27 00:04:00,69.7,67.0,29.85,SSW,209,5.0,14.0,91,0.00,,,0.00,Wunderground v.1.15,2013-08-27 04:04:00,
2013-08-27 00:06:00,69.7,67.0,29.85,West,262,6.0,14.0,91,0.00,,,0.00,Wunderground v.1.15,2013-08-27 04:06:00,
2013-08-27 00:08:00,69.7,67.0,29.85,SW,230,6.0,14.0,91,0.00,,,0.00,Wunderground v.1.15,2013-08-27 04:08:00,
2013-08-27 00:12:00,69.6,66.9,29.85,East,90,5.0,7.0,91,0.00,,,0.00,Wunderground v.1.15,2013-08-27 04:12:00,
2013-08-27 00:14:00,69.6,66.9,29.85,WSW,246,5.0,7.0,91,0.00,,,0.00,Wunderground v.1.15,2013-08-27 04:14:00,
2013-08-27 00:16:00,69.5,66.8,29.85,WSW,250,5.0,7.0,91,0.00,,,0.00,Wunderground v.1.15,2013-08-27 04:16:00,
2013-08-27 00:18:00,69.4,66.7,29.85,WSW,258,4.0,10.0,91,0.00,,,0.00,Wunderground v.1.15,2013-08-27 04:18:00,
2013-08-27 00:20:00,69.4,67.0,29.85,WSW,255,4.0,4.0,92,0.00,,,0.00,Wunderground v.1.15,2013-08-27 04:20:00,
2013-08-27 00:22:00,69.3,66.9,29.84,West,260,5.0,5.0,92,0.00,,,0.00,Wunderground v.1.15,2013-08-27 04:22:00,
2013-08-27 00:24:00,69.3,66.9,29.84,SW,233,5.0,5.0,92,0.00,,,0.00,Wunderground v.1.15,2013-08-27 04:24:00,
2013-08-27 00:26:00,69.2,66.8,29.84,SW,219,5.0,5.0,92,0.00,,,0.00,Wunderground v.1.15,2013-08-27 04:26:00,
2013-08-27 00:28:00,69.1,66.7,29.84,WSW,240,5.0,5.0,92,0.00,,,0.00,Wunderground v.1.15,2013-08-27 04:28:00,
2013-08-27 00:32:00,69.0,66.6,29.84,WSW,256,6.0,9.0,92,0.00,,,0.00,Wunderground v.1.15,2013-08-27 04:32:00,
2013-08-27 00:38:00,68.9,66.8,29.83,SW,219,5.0,9.0,93,0.00,,,0.00,Wunderground v.1.15,2013-08-27 04:38:00,
2013-08-27 00:40:00,68.8,66.7,29.83,WSW,247,5.0,5.0,93,0.00,,,0.00,Wunderground v.1.15,2013-08-27 04:40:00,
2013-08-27 00:42:00,68.8,66.7,29.83,West,269,5.0,5.0,93,0.00,,,0.00,Wunderground v.1.15,2013-08-27 04:42:00,
2013-08-27 00:44:00,68.8,66.7,29.83,SW,235,5.0,5.0,93,0.00,,,0.00,Wunderground v.1.15,2013-08-27 04:44:00,
2013-08-27 00:46:00,68.8,66.7,29.83,WSW,258,4.0,6.0,93,0.00,,,0.00,Wunderground v.1.15,2013-08-27 04:46:00,
2013-08-27 00:48:00,68.7,66.6,29.83,SW,225,4.0,6.0,93,0.00,,,0.00,Wunderground v.1.15,2013-08-27 04:48:00,
2013-08-27 00:50:00,68.7,66.6,29.83,WSW,251,4.0,4.0,93,0.00,,,0.00,Wunderground v.1.15,2013-08-27 04:50:00,
2013-08-27 00:52:00,68.7,66.6,29.83,West,264,3.0,4.0,93,0.00,,,0.00,Wunderground v.1.15,2013-08-27 04:52:00,
2013-08-27 00:54:00,68.7,66.6,29.83,West,263,3.0,4.0,93,0.00,,,0.00,Wunderground v.1.15,2013-08-27 04:54:00,
2013-08-27 00:58:00,68.6,66.8,29.83,West,260,3.0,10.0,94,0.00,,,0.00,Wunderground v.1.15,2013-08-27 04:58:00,
2013-08-27 01:00:00,68.6,66.5,29.83,SW,220,2.0,4.0,93,0.00,,,0.00,Wunderground v.1.15,2013-08-27 05:00:00,
2013-08-27 01:02:00,68.6,66.8,29.83,SSW,201,2.0,4.0,94,0.00,,,0.00,Wunderground v.1.15,2013-08-27 05:02:00,
2013-08-27 01:08:00,68.6,66.8,29.83,SW,233,3.0,6.0,94,0.00,,,0.00,Wunderground v.1.15,2013-08-27 05:08:00,
2013-08-27 01:12:00,68.6,66.8,29.83,SW,227,4.0,5.0,94,0.00,,,0.00,Wunderground v.1.15,2013-08-27 05:12:00,
2013-08-27 01:14:00,68.6,66.8,29.83,WSW,253,4.0,11.0,94,0.00,,,0.00,Wunderground v.1.15,2013-08-27 05:14:00,
2013-08-27 01:16:00,68.5,66.7,29.83,WSW,245,4.0,11.0,94,0.00,,,0.00,Wunderground v.1.15,2013-08-27 05:16:00,
2013-08-27 01:20:00,68.5,66.7,29.83,WSW,253,3.0,3.0,94,0.00,,,0.00,Wunderground v.1.15,2013-08-27 05:20:00,
2013-08-27 01:22:00,68.5,66.7,29.83,SW,220,3.0,3.0,94,0.00,,,0.00,Wunderground v.1.15,2013-08-27 05:22:00,
2013-08-27 01:24:00,68.5,66.7,29.83,West,266,3.0,5.0,94,0.00,,,0.00,Wunderground v.1.15,2013-08-27 05:24:00,
2013-08-27 01:28:00,68.5,66.7,29.83,SW,219,3.0,6.0,94,0.00,,,0.00,Wunderground v.1.15,2013-08-27 05:28:00,
2013-08-27 01:30:00,68.5,66.7,29.83,SW,218,3.0,5.0,94,0.00,,,0.01,Wunderground v.1.15,2013-08-27 05:30:00,
2013-08-27 01:36:00,68.4,66.6,29.82,SW,220,2.0,5.0,94,0.00,,,0.01,Wunderground v.1.15,2013-08-27 05:36:00,
2013-08-27 01:38:00,68.4,66.6,29.82,SW,222,2.0,5.0,94,0.08,,,0.02,Wunderground v.1.15,2013-08-27 05:38:00,
2013-08-27 01:40:00,68.3,66.8,29.82,SW,230,2.0,2.0,95,0.08,,,0.02,Wunderground v.1.15,2013-08-27 05:40:00,
2013-08-27 01:46:00,68.3,66.8,29.82,SW,218,2.0,3.0,95,0.06,,,0.02,Wunderground v.1.15,2013-08-27 05:46:00,
2013-08-27 01:48:00,68.3,66.8,29.82,SW,218,2.0,4.0,95,0.05,,,0.02,Wunderground v.1.15,2013-08-27 05:48:00,
2013-08-27 01:50:00,68.3,66.8,29.82,SW,215,2.0,2.0,95,0.04,,,0.02,Wunderground v.1.15,2013-08-27 05:50:00,
2013-08-27 01:52:00,68.2,66.7,29.82,SW,216,2.0,3.0,95,0.04,,,0.02,Wunderground v.1.15,2013-08-27 05:52:00,
2013-08-27 01:56:00,68.2,66.7,29.82,SW,216,2.0,3.0,95,0.00,,,0.02,Wunderground v.1.15,2013-08-27 05:56:00,
2013-08-27 01:58:00,68.2,66.7,29.82,SW,216,2.0,3.0,95,0.00,,,0.02,Wunderground v.1.15,2013-08-27 05:58:00,
2013-08-27 02:02:00,68.1,66.6,29.82,SW,215,2.0,2.0,95,0.00,,,0.02,Wunderground v.1.15,2013-08-27 06:02:00,
2013-08-27 02:04:00,68.1,66.6,29.82,SSW,203,2.0,3.0,95,0.00,,,0.02,Wunderground v.1.15,2013-08-27 06:04:00,
2013-08-27 02:06:00,68.1,66.6,29.81,SSW,198,2.0,5.0,95,0.00,,,0.02,Wunderground v.1.15,2013-08-27 06:06:00,
2013-08-27 02:08:00,68.0,66.5,29.81,SSW,199,3.0,5.0,95,0.00,,,0.02,Wunderground v.1.15,2013-08-27 06:08:00,
2013-08-27 02:10:00,68.0,66.5,29.81,SW,225,3.0,3.0,95,0.00,,,0.02,Wunderground v.1.15,2013-08-27 06:10:00,
2013-08-27 02:14:00,68.0,66.5,29.81,SW,220,3.0,4.0,95,0.00,,,0.02,Wunderground v.1.15,2013-08-27 06:14:00,
2013-08-27 02:18:00,68.0,66.5,29.81,WSW,241,3.0,4.0,95,0.00,,,0.02,Wunderground v.1.15,2013-08-27 06:18:00,
2013-08-27 02:20:00,68.0,66.5,29.81,SSW,203,2.0,2.0,95,0.00,,,0.02,Wunderground v.1.15,2013-08-27 06:20:00,
2013-08-27 02:22:00,68.0,66.5,29.80,SSW,202,3.0,3.0,95,0.00,,,0.02,Wunderground v.1.15,2013-08-27 06:22:00,
2013-08-27 02:26:00,68.0,66.5,29.80,SW,215,3.0,4.0,95,0.00,,,0.02,Wunderground v.1.15,2013-08-27 06:26:00,
2013-08-27 02:28:00,68.0,66.5,29.80,SSW,205,3.0,4.0,95,0.00,,,0.02,Wunderground v.1.15,2013-08-27 06:28:00,
2013-08-27 02:30:00,68.0,66.5,29.80,WSW,240,3.0,3.0,95,0.00,,,0.02,Wunderground v.1.15,2013-08-27 06:30:00,
2013-08-27 02:32:00,68.0,66.5,29.80,SSW,196,3.0,3.0,95,0.00,,,0.02,Wunderground v.1.15,2013-08-27 06:32:00,
2013-08-27 02:36:00,68.0,66.5,29.80,SSW,198,3.0,3.0,95,0.00,,,0.02,Wunderground v.1.15,2013-08-27 06:36:00,
2013-08-27 02:40:00,68.0,66.5,29.80,SSW,200,2.0,4.0,95,0.00,,,0.02,Wunderground v.1.15,2013-08-27 06:40:00,
2013-08-27 02:42:00,68.0,66.5,29.80,SW,223,2.0,4.0,95,0.00,,,0.02,Wunderground v.1.15,2013-08-27 06:42:00,
2013-08-27 02:44:00,68.0,66.5,29.80,SW,224,2.0,4.0,95,0.00,,,0.02,Wunderground v.1.15,2013-08-27 06:44:00,
2013-08-27 02:46:00,68.0,66.5,29.80,SW,235,2.0,6.0,95,0.00,,,0.02,Wunderground v.1.15,2013-08-27 06:46:00,
2013-08-27 02:48:00,68.1,66.6,29.80,WSW,238,2.0,6.0,95,0.00,,,0.02,Wunderground v.1.15,2013-08-27 06:48:00,
2013-08-27 02:52:00,68.1,66.6,29.79,SW,229,2.0,4.0,95,0.00,,,0.02,Wunderground v.1.15,2013-08-27 06:52:00,
2013-08-27 02:54:00,68.1,66.6,29.79,SSW,210,2.0,4.0,95,0.00,,,0.02,Wunderground v.1.15,2013-08-27 06:54:00,
2013-08-27 02:56:00,68.1,66.6,29.79,SW,229,2.0,4.0,95,0.00,,,0.02,Wunderground v.1.15,2013-08-27 06:56:00,
2013-08-27 03:00:00,68.1,66.9,29.79,SW,224,2.0,2.0,96,0.00,,,0.02,Wunderground v.1.15,2013-08-27 07:00:00,
2013-08-27 03:02:00,68.1,66.9,29.79,SW,225,2.0,2.0,96,0.00,,,0.02,Wunderground v.1.15,2013-08-27 07:02:00,
2013-08-27 03:04:00,68.1,66.9,29.79,SW,228,2.0,5.0,96,0.00,,,0.02,Wunderground v.1.15,2013-08-27 07:04:00,
2013-08-27 03:06:00,68.1,66.9,29.80,SSW,213,2.0,5.0,96,0.00,,,0.02,Wunderground v.1.15,2013-08-27 07:06:00,
2013-08-27 03:10:00,68.2,67.0,29.80,SSW,204,2.0,2.0,96,0.00,,,0.02,Wunderground v.1.15,2013-08-27 07:10:00,
2013-08-27 03:12:00,68.2,67.0,29.80,SSW,204,2.0,2.0,96,0.00,,,0.02,Wunderground v.1.15,2013-08-27 07:12:00,
2013-08-27 03:14:00,68.2,67.0,29.80,SSW,204,2.0,2.0,96,0.00,,,0.02,Wunderground v.1.15,2013-08-27 07:14:00,
2013-08-27 03:18:00,68.2,67.0,29.80,SW,230,2.0,3.0,96,0.00,,,0.02,Wunderground v.1.15,2013-08-27 07:18:00,
2013-08-27 03:20:00,68.2,67.0,29.80,SW,231,3.0,3.0,96,0.00,,,0.02,Wunderground v.1.15,2013-08-27 07:20:00,
2013-08-27 03:24:00,68.2,67.0,29.79,SW,217,2.0,3.0,96,0.00,,,0.02,Wunderground v.1.15,2013-08-27 07:24:00,
2013-08-27 03:26:00,68.2,67.0,29.79,SW,235,2.0,3.0,96,0.00,,,0.02,Wunderground v.1.15,2013-08-27 07:26:00,
2013-08-27 03:30:00,68.2,67.0,29.79,WSW,241,2.0,5.0,96,0.00,,,0.02,Wunderground v.1.15,2013-08-27 07:30:00,
2013-08-27 03:32:00,68.3,67.1,29.79,SW,235,2.0,5.0,96,0.00,,,0.02,Wunderground v.1.15,2013-08-27 07:32:00,
2013-08-27 03:34:00,68.3,67.1,29.79,SW,235,2.0,5.0,96,0.00,,,0.02,Wunderground v.1.15,2013-08-27 07:34:00,
2013-08-27 03:36:00,68.3,67.1,29.79,SW,235,2.0,5.0,96,0.00,,,0.02,Wunderground v.1.15,2013-08-27 07:36:00,
2013-08-27 03:38:00,68.3,67.1,29.79,SW,235,2.0,5.0,96,0.00,,,0.02,Wunderground v.1.15,2013-08-27 07:38:00,
2013-08-27 03:40:00,68.3,67.1,29.79,SW,227,2.0,2.0,96,0.00,,,0.02,Wunderground v.1.15,2013-08-27 07:40:00,
2013-08-27 03:42:00,68.3,67.1,29.79,SW,227,1.0,2.0,96,0.00,,,0.02,Wunderground v.1.15,2013-08-27 07:42:00,
2013-08-27 03:46:00,68.3,67.1,29.79,WSW,252,1.0,4.0,96,0.00,,,0.02,Wunderground v.1.15,2013-08-27 07:46:00,
2013-08-27 03:48:00,68.3,67.1,29.79,SSW,211,2.0,4.0,96,0.00,,,0.02,Wunderground v.1.15,2013-08-27 07:48:00,
2013-08-27 03:54:00,68.3,67.1,29.78,SW,225,2.0,5.0,96,0.00,,,0.02,Wunderground v.1.15,2013-08-27 07:54:00,
2013-08-27 03:56:00,68.3,67.1,29.78,SW,225,2.0,5.0,96,0.00,,,0.02,Wunderground v.1.15,2013-08-27 07:56:00,
2013-08-27 03:58:00,68.3,67.1,29.78,WSW,245,2.0,5.0,96,0.00,,,0.03,Wunderground v.1.15,2013-08-27 07:58:00,
2013-08-27 04:00:00,68.4,67.2,29.78,SW,234,2.0,2.0,96,0.00,,,0.03,Wunderground v.1.15,2013-08-27 08:00:00,
2013-08-27 04:02:00,68.4,67.2,29.78,WSW,248,2.0,2.0,96,0.00,,,0.03,Wunderground v.1.15,2013-08-27 08:02:00,
2013-08-27 04:04:00,68.4,67.2,29.78,WSW,248,2.0,5.0,96,0.00,,,0.03,Wunderground v.1.15,2013-08-27 08:04:00,
2013-08-27 04:06:00,68.3,67.1,29.78,WSW,248,2.0,5.0,96,0.00,,,0.03,Wunderground v.1.15,2013-08-27 08:06:00,
2013-08-27 04:10:00,68.4,67.2,29.78,WSW,247,2.0,2.0,96,0.06,,,0.04,Wunderground v.1.15,2013-08-27 08:10:00,
2013-08-27 04:12:00,68.4,67.2,29.78,WSW,248,2.0,2.0,96,0.06,,,0.04,Wunderground v.1.15,2013-08-27 08:12:00,
2013-08-27 04:16:00,68.4,67.2,29.78,SW,232,2.0,2.0,96,0.06,,,0.04,Wunderground v.1.15,2013-08-27 08:16:00,
2013-08-27 04:18:00,68.4,67.2,29.78,SW,232,2.0,2.0,96,0.06,,,0.04,Wunderground v.1.15,2013-08-27 08:18:00,
2013-08-27 04:24:00,68.4,67.2,29.78,WSW,243,2.0,4.0,96,0.04,,,0.04,Wunderground v.1.15,2013-08-27 08:24:00,
2013-08-27 04:26:00,68.4,67.2,29.78,WSW,244,1.0,4.0,96,0.00,,,0.04,Wunderground v.1.15,2013-08-27 08:26:00,
2013-08-27 04:28:00,68.4,67.2,29.78,WSW,243,1.0,4.0,96,0.00,,,0.04,Wunderground v.1.15,2013-08-27 08:28:00,
2013-08-27 04:32:00,68.4,67.2,29.78,WSW,243,1.0,1.0,96,0.00,,,0.04,Wunderground v.1.15,2013-08-27 08:32:00,
2013-08-27 04:34:00,68.4,67.2,29.78,WSW,247,1.0,4.0,96,0.00,,,0.04,Wunderground v.1.15,2013-08-27 08:34:00,
2013-08-27 04:36:00,68.4,67.2,29.78,WSW,247,1.0,4.0,96,0.00,,,0.04,Wunderground v.1.15,2013-08-27 08:36:00,
2013-08-27 04:40:00,68.5,67.3,29.78,WSW,240,2.0,2.0,96,0.00,,,0.04,Wunderground v.1.15,2013-08-27 08:40:00,
2013-08-27 04:44:00,68.5,67.3,29.78,WSW,240,2.0,2.0,96,0.00,,,0.04,Wunderground v.1.15,2013-08-27 08:44:00,
2013-08-27 04:46:00,68.5,67.3,29.78,WSW,240,1.0,2.0,96,0.00,,,0.04,Wunderground v.1.15,2013-08-27 08:46:00,
2013-08-27 04:48:00,68.5,67.3,29.78,WSW,240,1.0,2.0,96,0.00,,,0.04,Wunderground v.1.15,2013-08-27 08:48:00,
2013-08-27 04:52:00,68.5,67.3,29.77,WSW,240,1.0,1.0,96,0.00,,,0.04,Wunderground v.1.15,2013-08-27 08:52:00,
2013-08-27 04:54:00,68.5,67.3,29.77,WSW,240,1.0,3.0,96,0.00,,,0.04,Wunderground v.1.15,2013-08-27 08:54:00,
2013-08-27 04:56:00,68.5,67.3,29.77,WSW,240,1.0,3.0,96,0.00,,,0.04,Wunderground v.1.15,2013-08-27 08:56:00,
2013-08-27 04:58:00,68.5,67.3,29.77,WSW,240,1.0,3.0,96,0.00,,,0.04,Wunderground v.1.15,2013-08-27 08:58:00,
2013-08-27 05:02:00,68.5,67.3,29.77,WSW,240,1.0,1.0,96,0.00,,,0.04,Wunderground v.1.15,2013-08-27 09:02:00,
2013-08-27 05:04:00,68.5,67.3,29.77,WSW,240,1.0,1.0,96,0.00,,,0.04,Wunderground v.1.15,2013-08-27 09:04:00,
2013-08-27 05:06:00,68.5,67.3,29.78,WSW,240,0.0,2.0,96,0.00,,,0.05,Wunderground v.1.15,2013-08-27 09:06:00,
2013-08-27 05:08:00,68.4,67.2,29.78,WSW,240,1.0,2.0,96,0.00,,,0.05,Wunderground v.1.15,2013-08-27 09:08:00,
2013-08-27 05:12:00,68.4,67.2,29.78,WSW,238,1.0,2.0,96,0.10,,,0.06,Wunderground v.1.15,2013-08-27 09:12:00,
2013-08-27 05:16:00,68.3,67.1,29.78,SSW,210,1.0,4.0,96,0.10,,,0.06,Wunderground v.1.15,2013-08-27 09:16:00,
2013-08-27 05:18:00,68.3,67.1,29.78,SSW,210,1.0,4.0,96,0.09,,,0.06,Wunderground v.1.15,2013-08-27 09:18:00,
2013-08-27 05:24:00,68.3,67.1,29.78,SSW,210,0.0,1.0,96,0.24,,,0.08,Wunderground v.1.15,2013-08-27 09:24:00,
2013-08-27 05:30:00,68.2,67.0,29.78,SSW,210,1.0,1.0,96,0.30,,,0.10,Wunderground v.1.15,2013-08-27 09:30:00,
2013-08-27 05:34:00,68.2,67.0,29.78,SSW,210,1.0,1.0,96,0.67,,,0.12,Wunderground v.1.15,2013-08-27 09:34:00,
2013-08-27 05:38:00,68.2,67.0,29.78,SSW,210,1.0,1.0,96,0.13,,,0.12,Wunderground v.1.15,2013-08-27 09:38:00,
2013-08-27 05:40:00,68.1,66.9,29.78,SSW,210,1.0,2.0,96,0.09,,,0.13,Wunderground v.1.15,2013-08-27 09:40:00,
2013-08-27 05:46:00,68.1,66.9,29.78,SSW,210,1.0,2.0,96,0.19,,,0.14,Wunderground v.1.15,2013-08-27 09:46:00,
2013-08-27 05:48:00,68.1,66.9,29.78,SSW,210,1.0,2.0,96,0.12,,,0.14,Wunderground v.1.15,2013-08-27 09:48:00,
2013-08-27 05:50:00,68.1,66.9,29.78,SSW,209,2.0,2.0,96,0.32,,,0.15,Wunderground v.1.15,2013-08-27 09:50:00,
2013-08-27 05:52:00,68.1,66.9,29.78,SSW,200,2.0,2.0,96,0.32,,,0.16,Wunderground v.1.15,2013-08-27 09:52:00,
2013-08-27 05:56:00,68.0,66.8,29.78,SSW,201,2.0,2.0,96,0.10,,,0.16,Wunderground v.1.15,2013-08-27 09:56:00,
2013-08-27 06:00:00,67.9,66.7,29.78,SSW,201,2.0,3.0,96,0.07,,,0.17,Wunderground v.1.15,2013-08-27 10:00:00,
2013-08-27 06:02:00,67.9,66.7,29.78,SSW,201,2.0,3.0,96,0.22,,,0.17,Wunderground v.1.15,2013-08-27 10:02:00,
2013-08-27 06:04:00,67.8,66.6,29.78,SSW,200,2.0,3.0,96,0.22,,,0.18,Wunderground v.1.15,2013-08-27 10:04:00,
2013-08-27 06:06:00,67.8,66.6,29.78,SSW,199,2.0,3.0,96,0.15,,,0.18,Wunderground v.1.15,2013-08-27 10:06:00,
2013-08-27 06:10:00,67.8,66.6,29.78,SSW,199,2.0,3.0,96,0.08,,,0.19,Wunderground v.1.15,2013-08-27 10:10:00,
2013-08-27 06:12:00,67.7,66.5,29.78,SSW,199,2.0,3.0,96,0.08,,,0.19,Wunderground v.1.15,2013-08-27 10:12:00,
2013-08-27 06:14:00,67.7,66.5,29.78,SSW,199,2.0,3.0,96,0.24,,,0.20,Wunderground v.1.15,2013-08-27 10:14:00,
2013-08-27 06:20:00,67.7,66.5,29.78,SSW,200,2.0,5.0,96,0.08,,,0.21,Wunderground v.1.15,2013-08-27 10:20:00,
2013-08-27 06:22:00,67.7,66.5,29.79,SSW,200,2.0,5.0,96,0.08,,,0.21,Wunderground v.1.15,2013-08-27 10:22:00,
2013-08-27 06:28:00,67.7,66.5,29.79,SSW,192,2.0,5.0,96,0.11,,,0.22,Wunderground v.1.15,2013-08-27 10:28:00,
2013-08-27 06:30:00,67.7,66.8,29.79,SSW,206,2.0,3.0,97,0.08,,,0.23,Wunderground v.1.15,2013-08-27 10:30:00,
2013-08-27 06:32:00,67.7,66.8,29.79,South,186,2.0,6.0,97,0.28,,,0.23,Wunderground v.1.15,2013-08-27 10:32:00,
2013-08-27 06:36:00,67.7,66.8,29.77,SSW,199,2.0,6.0,97,0.15,,,0.24,Wunderground v.1.15,2013-08-27 10:36:00,
2013-08-27 06:38:00,67.7,66.8,29.77,SSW,198,2.0,6.0,97,0.11,,,0.25,Wunderground v.1.15,2013-08-27 10:38:00,
2013-08-27 06:40:00,67.7,66.8,29.77,SSW,198,2.0,2.0,97,0.25,,,0.26,Wunderground v.1.15,2013-08-27 10:40:00,
2013-08-27 06:42:00,67.7,66.8,29.77,South,183,2.0,5.0,97,0.25,,,0.26,Wunderground v.1.15,2013-08-27 10:42:00,
2013-08-27 06:46:00,67.6,66.7,29.77,SSW,196,2.0,5.0,97,0.10,,,0.26,Wunderground v.1.15,2013-08-27 10:46:00,
2013-08-27 06:48:00,67.6,66.4,29.77,SSW,196,2.0,5.0,96,0.09,,,0.27,Wunderground v.1.15,2013-08-27 10:48:00,
2013-08-27 06:52:00,67.6,66.4,29.78,SSW,196,2.0,4.0,96,0.21,,,0.28,Wunderground v.1.15,2013-08-27 10:52:00,
2013-08-27 06:54:00,67.6,66.4,29.78,SSW,196,1.0,4.0,96,0.13,,,0.28,Wunderground v.1.15,2013-08-27 10:54:00,
2013-08-27 06:58:00,67.6,66.4,29.78,SSW,196,1.0,4.0,96,0.32,,,0.30,Wunderground v.1.15,2013-08-27 10:58:00,
2013-08-27 07:00:00,67.6,66.4,29.78,SSW,196,1.0,1.0,96,0.14,,,0.30,Wunderground v.1.15,2013-08-27 11:00:00,
2013-08-27 07:02:00,67.6,66.4,29.78,SSW,196,1.0,1.0,96,0.11,,,0.30,Wunderground v.1.15,2013-08-27 11:02:00,
2013-08-27 07:04:00,67.6,66.4,29.78,SSW,196,1.0,1.0,96,0.10,,,0.31,Wunderground v.1.15,2013-08-27 11:04:00,
2013-08-27 07:08:00,67.6,66.4,29.79,SSW,196,1.0,3.0,96,0.18,,,0.32,Wunderground v.1.15,2013-08-27 11:08:00,
2013-08-27 07:10:00,67.6,66.4,29.79,SSW,196,1.0,1.0,96,0.11,,,0.32,Wunderground v.1.15,2013-08-27 11:10:00,
2013-08-27 07:12:00,67.6,66.4,29.79,SSW,196,1.0,2.0,96,0.08,,,0.32,Wunderground v.1.15,2013-08-27 11:12:00,
2013-08-27 07:16:00,67.6,66.4,29.79,SSW,196,1.0,2.0,96,0.25,,,0.34,Wunderground v.1.15,2013-08-27 11:16:00,
2013-08-27 07:18:00,67.6,66.4,29.79,SSW,196,1.0,2.0,96,0.18,,,0.34,Wunderground v.1.15,2013-08-27 11:18:00,
2013-08-27 07:22:00,67.6,66.4,29.79,SSW,196,1.0,1.0,96,0.09,,,0.35,Wunderground v.1.15,2013-08-27 11:22:00,
2013-08-27 07:24:00,67.6,66.4,29.79,SSW,196,1.0,1.0,96,0.09,,,0.35,Wunderground v.1.15,2013-08-27 11:24:00,
2013-08-27 07:26:00,67.6,66.4,29.79,SSW,196,1.0,1.0,96,0.14,,,0.36,Wunderground v.1.15,2013-08-27 11:26:00,
2013-08-27 07:28:00,67.6,66.4,29.79,SSW,196,1.0,1.0,96,0.14,,,0.36,Wunderground v.1.15,2013-08-27 11:28:00,
2013-08-27 07:30:00,67.6,66.4,29.79,SSW,196,1.0,1.0,96,0.13,,,0.36,Wunderground v.1.15,2013-08-27 11:30:00,
2013-08-27 07:32:00,67.7,66.8,29.79,SSW,196,1.0,3.0,97,0.10,,,0.36,Wunderground v.1.15,2013-08-27 11:32:00,
2013-08-27 07:34:00,67.7,66.8,29.79,SSW,196,1.0,3.0,97,0.07,,,0.36,Wunderground v.1.15,2013-08-27 11:34:00,
2013-08-27 07:40:00,67.7,66.8,29.79,SSW,196,1.0,1.0,97,0.16,,,0.38,Wunderground v.1.15,2013-08-27 11:40:00,
2013-08-27 07:44:00,67.8,66.9,29.79,SSW,196,1.0,1.0,97,0.18,,,0.40,Wunderground v.1.15,2013-08-27 11:44:00,
2013-08-27 07:46:00,67.8,66.9,29.79,SSW,196,0.0,2.0,97,0.18,,,0.40,Wunderground v.1.15,2013-08-27 11:46:00,
2013-08-27 07:48:00,67.9,67.0,29.79,SSW,196,1.0,3.0,97,0.14,,,0.40,Wunderground v.1.15,2013-08-27 11:48:00,
2013-08-27 07:52:00,67.9,67.0,29.78,SSW,196,1.0,1.0,97,0.07,,,0.40,Wunderground v.1.15,2013-08-27 11:52:00,
2013-08-27 07:54:00,67.9,67.0,29.78,SSW,196,1.0,4.0,97,0.06,,,0.40,Wunderground v.1.15,2013-08-27 11:54:00,
2013-08-27 07:58:00,68.0,67.1,29.78,SSW,196,1.0,4.0,97,0.06,,,0.41,Wunderground v.1.15,2013-08-27 11:58:00,
2013-08-27 08:00:00,68.0,67.1,29.78,SSW,196,0.0,0.0,97,0.06,,,0.41,Wunderground v.1.15,2013-08-27 12:00:00,
2013-08-27 08:04:00,68.1,67.2,29.78,SSW,196,0.0,2.0,97,0.09,,,0.42,Wunderground v.1.15,2013-08-27 12:04:00,
2013-08-27 08:06:00,68.1,67.2,29.78,SSW,196,0.0,2.0,97,0.09,,,0.42,Wunderground v.1.15,2013-08-27 12:06:00,
2013-08-27 08:08:00,68.2,67.3,29.78,SSW,196,1.0,2.0,97,0.09,,,0.42,Wunderground v.1.15,2013-08-27 12:08:00,
2013-08-27 08:10:00,68.3,67.4,29.78,SSW,196,0.0,2.0,97,0.06,,,0.42,Wunderground v.1.15,2013-08-27 12:10:00,
2013-08-27 08:12:00,68.3,67.4,29.78,SSW,196,1.0,2.0,97,0.06,,,0.43,Wunderground v.1.15,2013-08-27 12:12:00,
2013-08-27 08:14:00,68.3,67.4,29.78,SSW,196,0.0,2.0,97,0.06,,,0.43,Wunderground v.1.15,2013-08-27 12:14:00,
2013-08-27 08:18:00,68.5,67.6,29.78,SSE,162,1.0,2.0,97,0.17,,,0.44,Wunderground v.1.15,2013-08-27 12:18:00,
2013-08-27 08:22:00,68.5,67.6,29.78,SSE,162,1.0,3.0,97,0.13,,,0.45,Wunderground v.1.15,2013-08-27 12:22:00,
2013-08-27 08:24:00,68.6,67.7,29.78,SSE,156,1.0,3.0,97,0.18,,,0.46,Wunderground v.1.15,2013-08-27 12:24:00,
2013-08-27 08:26:00,68.6,67.7,29.78,SSE,156,1.0,3.0,97,0.18,,,0.46,Wunderground v.1.15,2013-08-27 12:26:00,
2013-08-27 08:30:00,68.7,67.8,29.78,SSE,156,1.0,1.0,97,0.08,,,0.46,Wunderground v.1.15,2013-08-27 12:30:00,
2013-08-27 08:32:00,68.7,67.8,29.78,SSE,156,1.0,1.0,97,0.07,,,0.46,Wunderground v.1.15,2013-08-27 12:32:00,
2013-08-27 08:34:00,68.7,67.8,29.78,SSE,156,1.0,1.0,97,0.06,,,0.47,Wunderground v.1.15,2013-08-27 12:34:00,
2013-08-27 08:36:00,68.7,67.8,29.78,SSE,156,1.0,2.0,97,0.06,,,0.47,Wunderground v.1.15,2013-08-27 12:36:00,
2013-08-27 08:38:00,68.7,67.8,29.78,SSE,156,1.0,2.0,97,0.06,,,0.47,Wunderground v.1.15,2013-08-27 12:38:00,
2013-08-27 08:42:00,68.7,67.8,29.78,SSE,156,1.0,1.0,97,0.09,,,0.48,Wunderground v.1.15,2013-08-27 12:42:00,
2013-08-27 08:44:00,68.7,67.8,29.78,SSE,156,0.0,2.0,97,0.09,,,0.48,Wunderground v.1.15,2013-08-27 12:44:00,
2013-08-27 08:48:00,68.7,67.8,29.78,SSE,156,1.0,2.0,97,0.32,,,0.50,Wunderground v.1.15,2013-08-27 12:48:00,
2013-08-27 08:50:00,68.7,67.8,29.78,SSE,154,1.0,2.0,97,0.21,,,0.51,Wunderground v.1.15,2013-08-27 12:50:00,
2013-08-27 08:52:00,68.7,67.8,29.78,SE,130,1.0,2.0,97,0.23,,,0.52,Wunderground v.1.15,2013-08-27 12:52:00,
2013-08-27 08:54:00,68.7,67.8,29.78,ESE,117,2.0,2.0,97,0.23,,,0.52,Wunderground v.1.15,2013-08-27 12:54:00,
2013-08-27 08:56:00,68.7,67.8,29.78,ESE,117,2.0,2.0,97,0.13,,,0.52,Wunderground v.1.15,2013-08-27 12:56:00,
2013-08-27 08:58:00,68.7,67.8,29.78,ESE,117,2.0,2.0,97,0.38,,,0.54,Wunderground v.1.15,2013-08-27 12:58:00,
2013-08-27 09:02:00,68.8,67.9,29.78,ESE,117,2.0,3.0,97,0.38,,,0.56,Wunderground v.1.15,2013-08-27 13:02:00,
2013-08-27 09:04:00,68.8,67.9,29.78,ESE,117,2.0,3.0,97,0.26,,,0.56,Wunderground v.1.15,2013-08-27 13:04:00,
2013-08-27 09:06:00,68.8,67.9,29.78,ESE,116,2.0,3.0,97,0.25,,,0.57,Wunderground v.1.15,2013-08-27 13:06:00,
2013-08-27 09:12:00,68.8,67.9,29.78,ESE,117,2.0,2.0,97,0.15,,,0.59,Wunderground v.1.15,2013-08-27 13:12:00,
2013-08-27 09:14:00,68.8,67.9,29.78,ESE,116,2.0,2.0,97,0.31,,,0.60,Wunderground v.1.15,2013-08-27 13:14:00,
2013-08-27 09:16:00,68.8,67.9,29.78,ESE,117,1.0,2.0,97,0.14,,,0.60,Wunderground v.1.15,2013-08-27 13:16:00,
2013-08-27 09:18:00,68.8,67.9,29.78,ESE,117,1.0,2.0,97,0.10,,,0.61,Wunderground v.1.15,2013-08-27 13:18:00,
2013-08-27 09:20:00,68.8,67.9,29.78,ESE,116,1.0,2.0,97,0.10,,,0.61,Wunderground v.1.15,2013-08-27 13:20:00,
2013-08-27 09:24:00,68.8,67.9,29.78,ESE,117,1.0,2.0,97,0.13,,,0.62,Wunderground v.1.15,2013-08-27 13:24:00,
2013-08-27 09:26:00,68.9,68.0,29.78,ESE,116,1.0,2.0,97,0.13,,,0.62,Wunderground v.1.15,2013-08-27 13:26:00,
2013-08-27 09:28:00,68.9,68.0,29.78,ESE,116,1.0,3.0,97,0.11,,,0.62,Wunderground v.1.15,2013-08-27 13:28:00,
2013-08-27 09:30:00,68.8,67.9,29.78,ESE,117,1.0,1.0,97,0.07,,,0.62,Wunderground v.1.15,2013-08-27 13:30:00,
2013-08-27 09:36:00,68.9,68.0,29.78,ESE,117,2.0,2.0,97,0.30,,,0.64,Wunderground v.1.15,2013-08-27 13:36:00,
2013-08-27 09:38:00,68.9,68.0,29.78,ESE,115,2.0,3.0,97,0.17,,,0.64,Wunderground v.1.15,2013-08-27 13:38:00,
2013-08-27 09:42:00,68.9,68.0,29.78,ESE,115,2.0,3.0,97,0.15,,,0.65,Wunderground v.1.15,2013-08-27 13:42:00,
2013-08-27 09:46:00,68.9,68.0,29.78,ESE,114,3.0,5.0,97,0.15,,,0.66,Wunderground v.1.15,2013-08-27 13:46:00,
2013-08-27 09:48:00,68.8,67.9,29.78,ESE,114,3.0,5.0,97,0.10,,,0.66,Wunderground v.1.15,2013-08-27 13:48:00,
2013-08-27 09:50:00,68.8,67.9,29.78,ESE,114,3.0,3.0,97,0.08,,,0.66,Wunderground v.1.15,2013-08-27 13:50:00,
2013-08-27 09:52:00,68.9,68.0,29.77,ESE,113,3.0,5.0,97,0.07,,,0.67,Wunderground v.1.15,2013-08-27 13:52:00,
2013-08-27 09:54:00,68.8,67.9,29.77,ESE,116,3.0,5.0,97,0.07,,,0.67,Wunderground v.1.15,2013-08-27 13:54:00,
2013-08-27 10:00:00,68.8,67.9,29.77,SE,126,2.0,5.0,97,0.12,,,0.68,Wunderground v.1.15,2013-08-27 14:00:00,
2013-08-27 10:02:00,68.8,67.9,29.77,SE,139,2.0,5.0,97,0.11,,,0.69,Wunderground v.1.15,2013-08-27 14:02:00,
2013-08-27 10:04:00,68.7,67.8,29.77,SE,139,2.0,5.0,97,0.30,,,0.69,Wunderground v.1.15,2013-08-27 14:04:00,
2013-08-27 10:10:00,68.6,67.7,29.79,SE,139,2.0,2.0,97,0.24,,,0.72,Wunderground v.1.15,2013-08-27 14:10:00,
2013-08-27 10:12:00,68.6,67.7,29.79,SE,139,2.0,2.0,97,0.24,,,0.72,Wunderground v.1.15,2013-08-27 14:12:00,
2013-08-27 10:16:00,68.5,67.6,29.79,SE,139,1.0,2.0,97,0.16,,,0.73,Wunderground v.1.15,2013-08-27 14:16:00,
2013-08-27 10:18:00,68.5,67.6,29.79,SE,139,0.0,2.0,97,0.20,,,0.74,Wunderground v.1.15,2013-08-27 14:18:00,
2013-08-27 10:22:00,68.5,67.6,29.79,SE,139,0.0,0.0,97,0.15,,,0.75,Wunderground v.1.15,2013-08-27 14:22:00,
2013-08-27 10:26:00,68.4,67.5,29.79,SE,139,0.0,0.0,97,0.21,,,0.76,Wunderground v.1.15,2013-08-27 14:26:00,
2013-08-27 10:28:00,68.4,67.5,29.79,SE,139,1.0,1.0,97,0.13,,,0.76,Wunderground v.1.15,2013-08-27 14:28:00,
2013-08-27 10:32:00,68.3,67.4,29.79,SE,139,2.0,4.0,97,0.11,,,0.77,Wunderground v.1.15,2013-08-27 14:32:00,
2013-08-27 10:34:00,68.3,67.4,29.79,SE,139,2.0,4.0,97,0.15,,,0.78,Wunderground v.1.15,2013-08-27 14:34:00,
2013-08-27 10:36:00,68.2,67.3,29.78,SE,139,2.0,4.0,97,0.20,,,0.78,Wunderground v.1.15,2013-08-27 14:36:00,
2013-08-27 10:38:00,68.2,67.3,29.78,SE,139,2.0,4.0,97,0.42,,,0.80,Wunderground v.1.15,2013-08-27 14:38:00,
2013-08-27 10:40:00,68.2,67.3,29.78,SE,139,2.0,2.0,97,0.25,,,0.81,Wunderground v.1.15,2013-08-27 14:40:00,
2013-08-27 10:46:00,68.1,67.2,29.78,SE,139,1.0,2.0,97,0.18,,,0.82,Wunderground v.1.15,2013-08-27 14:46:00,
2013-08-27 10:48:00,68.1,67.2,29.78,SE,139,1.0,2.0,97,0.12,,,0.82,Wunderground v.1.15,2013-08-27 14:48:00,
2013-08-27 10:54:00,68.1,67.2,29.78,SE,139,1.0,2.0,97,0.18,,,0.84,Wunderground v.1.15,2013-08-27 14:54:00,
2013-08-27 10:58:00,68.1,67.2,29.78,SE,139,1.0,3.0,97,0.14,,,0.84,Wunderground v.1.15,2013-08-27 14:58:00,
2013-08-27 11:00:00,68.1,67.2,29.78,SE,139,1.0,3.0,97,0.12,,,0.85,Wunderground v.1.15,2013-08-27 15:00:00,
2013-08-27 11:02:00,68.1,67.2,29.78,SE,139,1.0,3.0,97,0.12,,,0.85,Wunderground v.1.15,2013-08-27 15:02:00,
2013-08-27 11:04:00,68.1,67.2,29.78,SE,140,1.0,3.0,97,0.15,,,0.86,Wunderground v.1.15,2013-08-27 15:04:00,
2013-08-27 11:06:00,68.1,67.2,29.77,SE,140,1.0,3.0,97,0.15,,,0.86,Wunderground v.1.15,2013-08-27 15:06:00,
2013-08-27 11:12:00,68.2,67.3,29.77,SSE,149,2.0,5.0,97,0.23,,,0.88,Wunderground v.1.15,2013-08-27 15:12:00,
2013-08-27 11:14:00,68.2,67.3,29.77,SSE,149,2.0,5.0,97,0.20,,,0.88,Wunderground v.1.15,2013-08-27 15:14:00,
2013-08-27 11:16:00,68.3,67.4,29.77,SSE,149,2.0,5.0,97,0.17,,,0.89,Wunderground v.1.15,2013-08-27 15:16:00,
2013-08-27 11:20:00,68.3,67.4,29.77,SSE,152,2.0,2.0,97,0.19,,,0.90,Wunderground v.1.15,2013-08-27 15:20:00,
2013-08-27 11:22:00,68.4,67.5,29.77,SSE,152,2.0,2.0,97,0.14,,,0.91,Wunderground v.1.15,2013-08-27 15:22:00,
2013-08-27 11:24:00,68.4,67.5,29.77,SSE,149,1.0,5.0,97,0.31,,,0.92,Wunderground v.1.15,2013-08-27 15:24:00,
2013-08-27 11:28:00,68.4,67.5,29.77,SSE,148,2.0,5.0,97,0.16,,,0.93,Wunderground v.1.15,2013-08-27 15:28:00,
2013-08-27 11:30:00,68.5,67.6,29.77,SSE,148,2.0,2.0,97,0.16,,,0.93,Wunderground v.1.15,2013-08-27 15:30:00,
2013-08-27 11:32:00,68.5,67.6,29.77,SSE,149,2.0,3.0,97,0.14,,,0.94,Wunderground v.1.15,2013-08-27 15:32:00,
2013-08-27 11:34:00,68.5,67.6,29.77,SSE,149,2.0,3.0,97,0.14,,,0.94,Wunderground v.1.15,2013-08-27 15:34:00,
2013-08-27 11:36:00,68.6,67.7,29.77,SSE,149,2.0,3.0,97,0.14,,,0.94,Wunderground v.1.15,2013-08-27 15:36:00,
2013-08-27 11:40:00,68.6,67.7,29.77,SSE,149,1.0,2.0,97,0.17,,,0.95,Wunderground v.1.15,2013-08-27 15:40:00,
2013-08-27 11:42:00,68.6,67.7,29.77,SSE,150,1.0,2.0,97,0.17,,,0.95,Wunderground v.1.15,2013-08-27 15:42:00,
2013-08-27 11:46:00,68.7,67.8,29.77,SSE,149,1.0,2.0,97,0.09,,,0.95,Wunderground v.1.15,2013-08-27 15:46:00,
2013-08-27 11:48:00,68.8,67.9,29.77,SSE,149,1.0,2.0,97,0.09,,,0.96,Wunderground v.1.15,2013-08-27 15:48:00,
2013-08-27 11:50:00,68.8,67.9,29.77,SSE,150,1.0,2.0,97,0.09,,,0.96,Wunderground v.1.15,2013-08-27 15:50:00,
2013-08-27 11:56:00,69.0,68.1,29.76,SSE,151,1.0,3.0,97,0.11,,,0.97,Wunderground v.1.15,2013-08-27 15:56:00,
2013-08-27 12:02:00,69.2,68.3,29.76,SSE,151,1.0,2.0,97,0.06,,,0.97,Wunderground v.1.15,2013-08-27 16:02:00,
2013-08-27 12:04:00,69.2,68.3,29.76,SSE,152,1.0,2.0,97,0.05,,,0.97,Wunderground v.1.15,2013-08-27 16:04:00,
2013-08-27 12:06:00,69.2,68.3,29.77,SSE,152,1.0,2.0,97,0.05,,,0.98,Wunderground v.1.15,2013-08-27 16:06:00,
2013-08-27 12:12:00,69.2,68.3,29.77,SSE,151,2.0,2.0,97,0.05,,,0.98,Wunderground v.1.15,2013-08-27 16:12:00,
2013-08-27 12:14:00,69.1,68.2,29.77,SSE,151,1.0,2.0,97,0.06,,,0.99,Wunderground v.1.15,2013-08-27 16:14:00,
2013-08-27 12:20:00,69.2,68.3,29.77,SSE,151,1.0,1.0,97,0.06,,,0.99,Wunderground v.1.15,2013-08-27 16:20:00,
2013-08-27 12:22:00,69.2,68.3,29.77,SSE,151,0.0,1.0,97,0.06,,,0.99,Wunderground v.1.15,2013-08-27 16:22:00,
2013-08-27 12:26:00,69.3,68.4,29.77,SSE,151,0.0,1.0,97,0.05,,,0.99,Wunderground v.1.15,2013-08-27 16:26:00,
2013-08-27 12:28:00,69.3,68.4,29.77,SSE,151,0.0,1.0,97,0.04,,,0.99,Wunderground v.1.15,2013-08-27 16:28:00,
2013-08-27 12:32:00,69.5,68.6,29.77,SSE,151,0.0,0.0,97,0.00,,,0.99,Wunderground v.1.15,2013-08-27 16:32:00,
2013-08-27 12:36:00,69.3,68.4,29.77,SSE,151,0.0,1.0,97,0.00,,,0.99,Wunderground v.1.15,2013-08-27 16:36:00,
2013-08-27 12:38:00,69.3,68.4,29.77,SSE,151,0.0,1.0,97,0.00,,,0.99,Wunderground v.1.15,2013-08-27 16:38:00,
2013-08-27 12:40:00,69.3,68.4,29.77,SSE,151,0.0,0.0,97,0.00,,,0.99,Wunderground v.1.15,2013-08-27 16:40:00,
2013-08-27 12:42:00,69.2,68.3,29.77,SSE,151,0.0,0.0,97,0.00,,,0.99,Wunderground v.1.15,2013-08-27 16:42:00,
2013-08-27 12:46:00,69.2,68.3,29.77,SSE,151,0.0,0.0,97,0.00,,,0.99,Wunderground v.1.15,2013-08-27 16:46:00,
2013-08-27 12:50:00,69.2,68.3,29.77,SSE,151,0.0,0.0,97,0.00,,,0.99,Wunderground v.1.15,2013-08-27 16:50:00,
2013-08-27 12:52:00,69.3,68.4,29.77,SSE,151,0.0,0.0,97,0.00,,,0.99,Wunderground v.1.15,2013-08-27 16:52:00,
2013-08-27 12:56:00,69.5,68.6,29.77,SSE,150,0.0,0.0,97,0.00,,,0.99,Wunderground v.1.15,2013-08-27 16:56:00,
2013-08-27 12:58:00,69.4,68.5,29.77,SSE,147,0.0,1.0,97,0.00,,,0.99,Wunderground v.1.15,2013-08-27 16:58:00,
2013-08-27 13:00:00,69.5,68.6,29.77,SSE,147,1.0,1.0,97,0.00,,,0.99,Wunderground v.1.15,2013-08-27 17:00:00,
2013-08-27 13:02:00,69.5,68.6,29.77,SSE,147,1.0,1.0,97,0.00,,,0.99,Wunderground v.1.15,2013-08-27 17:02:00,
2013-08-27 13:04:00,69.5,68.6,29.77,SSE,147,1.0,1.0,97,0.00,,,0.99,Wunderground v.1.15,2013-08-27 17:04:00,
2013-08-27 13:08:00,69.7,68.8,29.77,SSE,147,0.0,2.0,97,0.00,,,0.99,Wunderground v.1.15,2013-08-27 17:08:00,
2013-08-27 13:10:00,69.7,68.8,29.77,NNW,340,1.0,3.0,97,0.00,,,0.99,Wunderground v.1.15,2013-08-27 17:10:00,
2013-08-27 13:16:00,69.7,68.8,29.77,NNW,345,1.0,5.0,97,0.00,,,0.99,Wunderground v.1.15,2013-08-27 17:16:00,
2013-08-27 13:18:00,69.5,68.6,29.77,NNW,345,2.0,5.0,97,0.00,,,0.99,Wunderground v.1.15,2013-08-27 17:18:00,
2013-08-27 13:20:00,69.5,68.6,29.77,NNW,345,2.0,2.0,97,0.00,,,0.99,Wunderground v.1.15,2013-08-27 17:20:00,
2013-08-27 13:22:00,69.5,68.6,29.77,NNW,345,2.0,4.0,97,0.00,,,0.99,Wunderground v.1.15,2013-08-27 17:22:00,
2013-08-27 13:28:00,69.5,68.6,29.77,NNW,345,1.0,4.0,97,0.00,,,0.99,Wunderground v.1.15,2013-08-27 17:28:00,
2013-08-27 13:30:00,69.5,68.6,29.77,NNW,345,1.0,3.0,97,0.00,,,0.99,Wunderground v.1.15,2013-08-27 17:30:00,
2013-08-27 13:34:00,69.5,68.6,29.77,NNW,345,1.0,3.0,97,0.00,,,0.99,Wunderground v.1.15,2013-08-27 17:34:00,
2013-08-27 13:36:00,69.5,68.6,29.77,NNW,345,2.0,3.0,97,0.00,,,0.99,Wunderground v.1.15,2013-08-27 17:36:00,
2013-08-27 13:38:00,69.5,68.6,29.77,NNW,345,2.0,3.0,97,0.00,,,0.99,Wunderground v.1.15,2013-08-27 17:38:00,
2013-08-27 13:40:00,69.7,68.8,29.77,ENE,71,2.0,2.0,97,0.00,,,0.99,Wunderground v.1.15,2013-08-27 17:40:00,
2013-08-27 13:46:00,69.6,68.7,29.77,ENE,71,1.0,5.0,97,0.00,,,0.99,Wunderground v.1.15,2013-08-27 17:46:00,
2013-08-27 13:52:00,69.4,68.5,29.77,NE,42,2.0,2.0,97,0.00,,,0.99,Wunderground v.1.15,2013-08-27 17:52:00,
2013-08-27 13:54:00,69.5,68.6,29.77,NE,42,2.0,2.0,97,0.00,,,0.99,Wunderground v.1.15,2013-08-27 17:54:00,
2013-08-27 13:56:00,69.4,68.5,29.77,NE,42,3.0,3.0,97,0.00,,,0.99,Wunderground v.1.15,2013-08-27 17:56:00,
2013-08-27 14:00:00,69.5,68.6,29.77,NE,42,2.0,5.0,97,0.00,,,0.99,Wunderground v.1.15,2013-08-27 18:00:00,
2013-08-27 14:02:00,69.5,68.6,29.77,NE,42,2.0,5.0,97,0.00,,,0.99,Wunderground v.1.15,2013-08-27 18:02:00,
2013-08-27 14:06:00,69.5,68.6,29.76,NE,42,2.0,5.0,97,0.00,,,0.99,Wunderground v.1.15,2013-08-27 18:06:00,
2013-08-27 14:08:00,69.5,68.6,29.76,NE,42,2.0,5.0,97,0.00,,,0.99,Wunderground v.1.15,2013-08-27 18:08:00,
2013-08-27 14:12:00,69.5,68.6,29.76,NE,41,2.0,2.0,97,0.00,,,0.99,Wunderground v.1.15,2013-08-27 18:12:00,
2013-08-27 14:14:00,69.6,68.7,29.76,NE,42,2.0,2.0,97,0.00,,,0.99,Wunderground v.1.15,2013-08-27 18:14:00,
2013-08-27 14:16:00,69.7,68.8,29.76,NE,50,2.0,3.0,97,0.00,,,0.99,Wunderground v.1.15,2013-08-27 18:16:00,
2013-08-27 14:18:00,69.7,68.8,29.76,NE,49,2.0,3.0,97,0.00,,,0.99,Wunderground v.1.15,2013-08-27 18:18:00,
2013-08-27 14:22:00,69.9,69.0,29.77,NE,49,2.0,4.0,97,0.00,,,0.99,Wunderground v.1.15,2013-08-27 18:22:00,
2013-08-27 14:24:00,70.0,69.1,29.77,NE,54,2.0,4.0,97,0.00,,,0.99,Wunderground v.1.15,2013-08-27 18:24:00,
2013-08-27 14:26:00,70.0,69.1,29.77,ENE,58,2.0,4.0,97,0.00,,,0.99,Wunderground v.1.15,2013-08-27 18:26:00,
2013-08-27 14:28:00,70.0,69.1,29.77,ENE,59,3.0,4.0,97,0.00,,,0.99,Wunderground v.1.15,2013-08-27 18:28:00,
2013-08-27 14:30:00,70.0,69.1,29.77,ENE,59,3.0,4.0,97,0.00,,,0.99,Wunderground v.1.15,2013-08-27 18:30:00,
2013-08-27 14:32:00,70.0,69.1,29.77,NE,53,3.0,4.0,97,0.00,,,0.99,Wunderground v.1.15,2013-08-27 18:32:00,
2013-08-27 14:34:00,70.1,69.2,29.77,NE,53,3.0,4.0,97,0.00,,,0.99,Wunderground v.1.15,2013-08-27 18:34:00,
2013-08-27 14:36:00,70.1,69.2,29.77,NE,53,3.0,5.0,97,0.00,,,0.99,Wunderground v.1.15,2013-08-27 18:36:00,
2013-08-27 14:40:00,70.2,69.3,29.77,ENE,57,3.0,3.0,97,0.00,,,0.99,Wunderground v.1.15,2013-08-27 18:40:00,
2013-08-27 14:42:00,70.3,69.4,29.77,ENE,57,2.0,3.0,97,0.00,,,0.99,Wunderground v.1.15,2013-08-27 18:42:00,
2013-08-27 14:48:00,70.4,69.5,29.77,NE,37,2.0,6.0,97,0.00,,,0.99,Wunderground v.1.15,2013-08-27 18:48:00,
2013-08-27 14:50:00,70.4,69.5,29.77,NE,34,2.0,3.0,97,0.00,,,0.99,Wunderground v.1.15,2013-08-27 18:50:00,
2013-08-27 14:52:00,70.5,69.6,29.77,NE,35,3.0,4.0,97,0.00,,,0.99,Wunderground v.1.15,2013-08-27 18:52:00,
2013-08-27 14:54:00,70.5,69.6,29.77,NE,38,3.0,4.0,97,0.00,,,0.99,Wunderground v.1.15,2013-08-27 18:54:00,
2013-08-27 14:56:00,70.6,69.7,29.77,NNE,30,4.0,4.0,97,0.00,,,0.99,Wunderground v.1.15,2013-08-27 18:56:00,
2013-08-27 15:02:00,70.7,69.8,29.77,NNE,30,3.0,5.0,97,0.00,,,0.99,Wunderground v.1.15,2013-08-27 19:02:00,
2013-08-27 15:04:00,70.8,69.9,29.77,NE,42,3.0,5.0,97,0.00,,,0.99,Wunderground v.1.15,2013-08-27 19:04:00,
2013-08-27 15:06:00,70.9,70.0,29.77,NE,42,3.0,5.0,97,0.00,,,0.99,Wunderground v.1.15,2013-08-27 19:06:00,
2013-08-27 15:10:00,70.6,69.7,29.77,NE,53,3.0,3.0,97,0.00,,,0.99,Wunderground v.1.15,2013-08-27 19:10:00,
2013-08-27 15:14:00,70.7,69.8,29.77,NE,53,3.0,3.0,97,0.00,,,0.99,Wunderground v.1.15,2013-08-27 19:14:00,
2013-08-27 15:16:00,70.8,69.9,29.77,NE,53,3.0,3.0,97,0.00,,,0.99,Wunderground v.1.15,2013-08-27 19:16:00,
2013-08-27 15:20:00,71.0,70.1,29.77,NE,53,2.0,3.0,97,0.00,,,0.99,Wunderground v.1.15,2013-08-27 19:20:00,
2013-08-27 15:22:00,71.1,70.2,29.77,NE,53,2.0,3.0,97,0.00,,,0.99,Wunderground v.1.15,2013-08-27 19:22:00,
2013-08-27 15:26:00,71.0,70.1,29.77,NE,51,2.0,4.0,97,0.00,,,0.99,Wunderground v.1.15,2013-08-27 19:26:00,
2013-08-27 15:28:00,71.0,70.1,29.77,ENE,75,2.0,4.0,97,0.00,,,0.99,Wunderground v.1.15,2013-08-27 19:28:00,
2013-08-27 15:32:00,70.8,69.6,29.77,ENE,65,3.0,3.0,96,0.00,,,0.99,Wunderground v.1.15,2013-08-27 19:32:00,
2013-08-27 15:34:00,70.8,69.6,29.77,ENE,60,3.0,4.0,96,0.00,,,0.99,Wunderground v.1.15,2013-08-27 19:34:00,
2013-08-27 15:36:00,70.8,69.6,29.76,ENE,60,3.0,4.0,96,0.00,,,0.99,Wunderground v.1.15,2013-08-27 19:36:00,
2013-08-27 15:38:00,70.8,69.6,29.76,ENE,60,3.0,4.0,96,0.00,,,0.99,Wunderground v.1.15,2013-08-27 19:38:00,
2013-08-27 15:40:00,70.8,69.6,29.76,ENE,62,3.0,4.0,96,0.00,,,0.99,Wunderground v.1.15,2013-08-27 19:40:00,
2013-08-27 15:44:00,70.8,69.6,29.76,ENE,57,3.0,3.0,96,0.00,,,0.99,Wunderground v.1.15,2013-08-27 19:44:00,
2013-08-27 15:54:00,70.8,69.6,29.77,ENE,63,3.0,3.0,96,0.00,,,0.99,Wunderground v.1.15,2013-08-27 19:54:00,
2013-08-27 15:56:00,70.9,69.7,29.77,ENE,63,3.0,3.0,96,0.00,,,0.99,Wunderground v.1.15,2013-08-27 19:56:00,
2013-08-27 15:58:00,71.0,69.8,29.77,ENE,63,2.0,3.0,96,0.00,,,0.99,Wunderground v.1.15,2013-08-27 19:58:00,
2013-08-27 16:00:00,71.0,69.8,29.77,NE,47,2.0,6.0,96,0.00,,,0.99,Wunderground v.1.15,2013-08-27 20:00:00,
2013-08-27 16:04:00,70.8,69.3,29.77,NE,36,3.0,6.0,95,0.00,,,0.99,Wunderground v.1.15,2013-08-27 20:04:00,
2013-08-27 16:06:00,70.7,69.5,29.77,NE,42,3.0,6.0,96,0.00,,,0.99,Wunderground v.1.15,2013-08-27 20:06:00,
2013-08-27 16:08:00,70.8,69.3,29.77,NNE,32,4.0,6.0,95,0.00,,,0.99,Wunderground v.1.15,2013-08-27 20:08:00,
2013-08-27 16:12:00,70.8,69.3,29.77,NNE,33,3.0,3.0,95,0.00,,,0.99,Wunderground v.1.15,2013-08-27 20:12:00,
2013-08-27 16:16:00,70.8,69.3,29.77,NE,46,2.0,6.0,95,0.00,,,0.99,Wunderground v.1.15,2013-08-27 20:16:00,
2013-08-27 16:18:00,70.8,69.3,29.77,NE,46,2.0,6.0,95,0.00,,,0.99,Wunderground v.1.15,2013-08-27 20:18:00,
2013-08-27 16:22:00,70.8,69.3,29.77,NE,46,2.0,6.0,95,0.00,,,0.99,Wunderground v.1.15,2013-08-27 20:22:00,
2013-08-27 16:24:00,70.8,69.3,29.77,NE,46,2.0,6.0,95,0.00,,,0.99,Wunderground v.1.15,2013-08-27 20:24:00,
2013-08-27 16:26:00,70.8,69.3,29.77,NE,46,2.0,6.0,95,0.00,,,0.99,Wunderground v.1.15,2013-08-27 20:26:00,
2013-08-27 16:28:00,70.8,69.3,29.77,NE,46,2.0,6.0,95,0.00,,,0.99,Wunderground v.1.15,2013-08-27 20:28:00,
2013-08-27 16:30:00,70.8,69.3,29.77,NE,46,2.0,4.0,95,0.00,,,0.99,Wunderground v.1.15,2013-08-27 20:30:00,
2013-08-27 16:32:00,70.8,69.3,29.77,NE,46,2.0,5.0,95,0.00,,,0.99,Wunderground v.1.15,2013-08-27 20:32:00,
2013-08-27 16:34:00,70.8,69.3,29.77,NE,46,3.0,5.0,95,0.00,,,0.99,Wunderground v.1.15,2013-08-27 20:34:00,
2013-08-27 16:36:00,70.8,69.3,29.76,NE,46,3.0,5.0,95,0.00,,,0.99,Wunderground v.1.15,2013-08-27 20:36:00,
2013-08-27 16:40:00,71.0,69.5,29.76,NE,46,3.0,3.0,95,0.00,,,0.99,Wunderground v.1.15,2013-08-27 20:40:00,
2013-08-27 16:44:00,71.0,69.5,29.76,NE,46,2.0,6.0,95,0.00,,,0.99,Wunderground v.1.15,2013-08-27 20:44:00,
2013-08-27 16:46:00,71.1,69.6,29.76,NE,46,3.0,6.0,95,0.00,,,0.99,Wunderground v.1.15,2013-08-27 20:46:00,
2013-08-27 16:48:00,71.2,69.7,29.76,NE,46,3.0,6.0,95,0.00,,,0.99,Wunderground v.1.15,2013-08-27 20:48:00,
2013-08-27 16:54:00,71.3,69.8,29.76,NE,40,3.0,5.0,95,0.00,,,0.99,Wunderground v.1.15,2013-08-27 20:54:00,
2013-08-27 16:56:00,71.4,69.9,29.76,NE,53,3.0,9.0,95,0.00,,,0.99,Wunderground v.1.15,2013-08-27 20:56:00,
2013-08-27 16:58:00,71.3,69.5,29.76,NE,51,4.0,9.0,94,0.00,,,0.99,Wunderground v.1.15,2013-08-27 20:58:00,
2013-08-27 17:00:00,71.4,69.6,29.76,NE,51,4.0,4.0,94,0.00,,,0.99,Wunderground v.1.15,2013-08-27 21:00:00,
2013-08-27 17:02:00,71.5,70.0,29.76,NE,51,4.0,6.0,95,0.00,,,0.99,Wunderground v.1.15,2013-08-27 21:02:00,
2013-08-27 17:04:00,71.5,69.7,29.76,ENE,59,4.0,6.0,94,0.00,,,0.99,Wunderground v.1.15,2013-08-27 21:04:00,
2013-08-27 17:06:00,71.5,69.7,29.76,NNE,32,4.0,7.0,94,0.00,,,0.99,Wunderground v.1.15,2013-08-27 21:06:00,
2013-08-27 17:08:00,71.6,69.8,29.76,NE,38,3.0,7.0,94,0.00,,,0.99,Wunderground v.1.15,2013-08-27 21:08:00,
2013-08-27 17:10:00,71.7,69.9,29.76,NNE,30,4.0,4.0,94,0.00,,,0.99,Wunderground v.1.15,2013-08-27 21:10:00,
2013-08-27 17:12:00,71.7,69.9,29.76,NNE,32,4.0,6.0,94,0.00,,,0.99,Wunderground v.1.15,2013-08-27 21:12:00,
2013-08-27 17:16:00,72.0,70.2,29.76,ENE,67,4.0,6.0,94,0.00,,,0.99,Wunderground v.1.15,2013-08-27 21:16:00,
2013-08-27 17:18:00,72.0,69.9,29.76,NE,40,4.0,6.0,93,0.00,,,0.99,Wunderground v.1.15,2013-08-27 21:18:00,
2013-08-27 17:32:00,71.9,69.8,29.76,ENE,59,4.0,4.0,93,0.00,,,0.99,Wunderground v.1.15,2013-08-27 21:32:00,
2013-08-27 17:38:00,71.6,69.5,29.77,NE,54,4.0,9.0,93,0.00,,,0.99,Wunderground v.1.15,2013-08-27 21:38:00,
2013-08-27 17:46:00,71.4,69.3,29.77,NE,56,5.0,10.0,93,0.00,,,0.99,Wunderground v.1.15,2013-08-27 21:46:00,
2013-08-27 17:48:00,71.4,69.3,29.77,NE,53,5.0,10.0,93,0.00,,,0.99,Wunderground v.1.15,2013-08-27 21:48:00,
2013-08-27 17:52:00,71.3,69.2,29.77,NE,36,4.0,4.0,93,0.00,,,0.99,Wunderground v.1.15,2013-08-27 21:52:00,
2013-08-27 17:54:00,71.3,69.2,29.77,NE,53,4.0,4.0,93,0.00,,,0.99,Wunderground v.1.15,2013-08-27 21:54:00,
2013-08-27 17:56:00,71.3,69.2,29.77,NE,52,4.0,7.0,93,0.00,,,0.99,Wunderground v.1.15,2013-08-27 21:56:00,
2013-08-27 17:58:00,71.3,68.9,29.77,NE,46,4.0,7.0,92,0.00,,,0.99,Wunderground v.1.15,2013-08-27 21:58:00,
2013-08-27 18:00:00,71.3,68.9,29.77,NE,44,4.0,5.0,92,0.00,,,0.99,Wunderground v.1.15,2013-08-27 22:00:00,
2013-08-27 18:02:00,71.3,69.2,29.77,NE,44,4.0,5.0,93,0.00,,,0.99,Wunderground v.1.15,2013-08-27 22:02:00,
2013-08-27 18:06:00,71.6,69.5,29.76,NE,44,3.0,5.0,93,0.00,,,0.99,Wunderground v.1.15,2013-08-27 22:06:00,
2013-08-27 18:08:00,71.6,69.5,29.76,NE,51,3.0,5.0,93,0.00,,,0.99,Wunderground v.1.15,2013-08-27 22:08:00,
2013-08-27 18:10:00,71.5,69.1,29.76,NNE,31,3.0,8.0,92,0.00,,,0.99,Wunderground v.1.15,2013-08-27 22:10:00,
2013-08-27 18:12:00,71.4,69.0,29.76,NE,36,3.0,8.0,92,0.00,,,0.99,Wunderground v.1.15,2013-08-27 22:12:00,
2013-08-27 18:18:00,71.4,69.0,29.76,NE,46,4.0,8.0,92,0.00,,,0.99,Wunderground v.1.15,2013-08-27 22:18:00,
2013-08-27 18:20:00,71.2,68.8,29.76,NE,44,4.0,9.0,92,0.00,,,0.99,Wunderground v.1.15,2013-08-27 22:20:00,
2013-08-27 18:24:00,71.1,68.7,29.76,ENE,57,5.0,9.0,92,0.00,,,0.99,Wunderground v.1.15,2013-08-27 22:24:00,
2013-08-27 18:26:00,71.0,68.6,29.76,NE,36,5.0,9.0,92,0.00,,,0.99,Wunderground v.1.15,2013-08-27 22:26:00,
2013-08-27 18:30:00,70.9,68.5,29.76,NNE,14,5.0,5.0,92,0.00,,,0.99,Wunderground v.1.15,2013-08-27 22:30:00,
2013-08-27 18:32:00,70.8,68.4,29.76,NE,45,5.0,5.0,92,0.00,,,0.99,Wunderground v.1.15,2013-08-27 22:32:00,
2013-08-27 18:34:00,70.8,68.7,29.76,ENE,57,5.0,5.0,93,0.00,,,0.99,Wunderground v.1.15,2013-08-27 22:34:00,
2013-08-27 18:36:00,70.7,68.6,29.76,NNE,33,5.0,5.0,93,0.00,,,0.99,Wunderground v.1.15,2013-08-27 22:36:00,
2013-08-27 18:42:00,70.5,68.4,29.76,NNE,32,5.0,6.0,93,0.00,,,0.99,Wunderground v.1.15,2013-08-27 22:42:00,
2013-08-27 18:44:00,70.5,68.4,29.76,NE,35,5.0,6.0,93,0.00,,,0.99,Wunderground v.1.15,2013-08-27 22:44:00,
2013-08-27 18:48:00,70.4,68.3,29.76,NE,35,4.0,6.0,93,0.00,,,0.99,Wunderground v.1.15,2013-08-27 22:48:00,
2013-08-27 18:52:00,70.4,68.3,29.76,NE,36,3.0,4.0,93,0.00,,,0.99,Wunderground v.1.15,2013-08-27 22:52:00,
2013-08-27 18:54:00,70.3,68.2,29.76,NE,36,3.0,4.0,93,0.00,,,0.99,Wunderground v.1.15,2013-08-27 22:54:00,
2013-08-27 18:56:00,70.3,68.2,29.76,NE,50,3.0,4.0,93,0.00,,,0.99,Wunderground v.1.15,2013-08-27 22:56:00,
2013-08-27 18:58:00,70.2,68.1,29.76,ENE,58,3.0,5.0,93,0.00,,,0.99,Wunderground v.1.15,2013-08-27 22:58:00,
2013-08-27 19:00:00,70.1,68.3,29.76,NE,53,3.0,3.0,94,0.00,,,0.99,Wunderground v.1.15,2013-08-27 23:00:00,
2013-08-27 19:02:00,70.0,68.2,29.76,NE,48,3.0,3.0,94,0.00,,,0.99,Wunderground v.1.15,2013-08-27 23:02:00,
2013-08-27 19:04:00,70.0,68.2,29.76,NE,48,3.0,3.0,94,0.00,,,0.99,Wunderground v.1.15,2013-08-27 23:04:00,
2013-08-27 19:06:00,70.0,67.9,29.76,NE,48,3.0,3.0,93,0.00,,,0.99,Wunderground v.1.15,2013-08-27 23:06:00,
2013-08-27 19:08:00,69.9,68.1,29.76,NE,36,3.0,3.0,94,0.00,,,0.99,Wunderground v.1.15,2013-08-27 23:08:00,
2013-08-27 19:10:00,69.8,68.0,29.76,NNE,23,3.0,4.0,94,0.00,,,0.99,Wunderground v.1.15,2013-08-27 23:10:00,
2013-08-27 19:12:00,69.7,67.9,29.76,NNE,26,3.0,5.0,94,0.00,,,0.99,Wunderground v.1.15,2013-08-27 23:12:00,
2013-08-27 19:14:00,69.7,67.9,29.76,NNE,26,4.0,5.0,94,0.00,,,0.99,Wunderground v.1.15,2013-08-27 23:14:00,
2013-08-27 19:16:00,69.6,67.8,29.76,NNE,24,4.0,5.0,94,0.00,,,0.99,Wunderground v.1.15,2013-08-27 23:16:00,
2013-08-27 19:18:00,69.5,67.7,29.76,NNE,16,4.0,5.0,94,0.00,,,0.99,Wunderground v.1.15,2013-08-27 23:18:00,
2013-08-27 19:24:00,69.3,67.5,29.77,NNE,18,4.0,4.0,94,0.00,,,0.99,Wunderground v.1.15,2013-08-27 23:24:00,
2013-08-27 19:30:00,69.1,67.3,29.77,NNE,16,3.0,3.0,94,0.00,,,0.99,Wunderground v.1.15,2013-08-27 23:30:00,
2013-08-27 19:34:00,69.0,67.5,29.77,NNE,17,3.0,3.0,95,0.00,,,0.99,Wunderground v.1.15,2013-08-27 23:34:00,
2013-08-27 19:36:00,68.9,67.4,29.78,NNE,17,3.0,3.0,95,0.00,,,0.99,Wunderground v.1.15,2013-08-27 23:36:00,
2013-08-27 19:40:00,68.8,67.3,29.78,NNE,17,3.0,3.0,95,0.00,,,0.99,Wunderground v.1.15,2013-08-27 23:40:00,
2013-08-27 19:42:00,68.8,67.3,29.78,NNE,17,3.0,3.0,95,0.00,,,0.99,Wunderground v.1.15,2013-08-27 23:42:00,
2013-08-27 19:44:00,68.8,67.3,29.78,NNE,17,3.0,3.0,95,0.00,,,0.99,Wunderground v.1.15,2013-08-27 23:44:00,
2013-08-27 19:48:00,68.7,67.2,29.78,NNE,17,3.0,4.0,95,0.00,,,0.99,Wunderground v.1.15,2013-08-27 23:48:00,
2013-08-27 19:50:00,68.6,67.1,29.79,NNE,17,3.0,3.0,95,0.00,,,0.99,Wunderground v.1.15,2013-08-27 23:50:00,
2013-08-27 19:54:00,68.5,67.0,29.79,NNE,17,2.0,3.0,95,0.00,,,0.99,Wunderground v.1.15,2013-08-27 23:54:00,
2013-08-27 19:56:00,68.5,67.0,29.79,NNE,17,2.0,3.0,95,0.00,,,0.99,Wunderground v.1.15,2013-08-27 23:56:00,
2013-08-27 20:00:00,68.5,67.0,29.79,NNE,17,1.0,1.0,95,0.00,,,0.99,Wunderground v.1.15,2013-08-28 00:00:00,
2013-08-27 20:04:00,68.4,66.9,29.79,NNE,17,1.0,1.0,95,0.00,,,0.99,Wunderground v.1.15,2013-08-28 00:04:00,
2013-08-27 20:06:00,68.4,66.9,29.78,NNE,17,1.0,1.0,95,0.00,,,0.99,Wunderground v.1.15,2013-08-28 00:06:00,
2013-08-27 20:08:00,68.4,66.9,29.78,NNE,17,1.0,2.0,95,0.00,,,0.99,Wunderground v.1.15,2013-08-28 00:08:00,
2013-08-27 20:10:00,68.4,66.9,29.78,NNE,17,1.0,1.0,95,0.00,,,0.99,Wunderground v.1.15,2013-08-28 00:10:00,
2013-08-27 20:14:00,68.4,66.9,29.78,NNE,17,1.0,1.0,95,0.00,,,0.99,Wunderground v.1.15,2013-08-28 00:14:00,
2013-08-27 20:16:00,68.3,66.8,29.78,NNE,17,1.0,1.0,95,0.00,,,0.99,Wunderground v.1.15,2013-08-28 00:16:00,
2013-08-27 20:18:00,68.3,66.8,29.78,NNE,17,1.0,1.0,95,0.00,,,0.99,Wunderground v.1.15,2013-08-28 00:18:00,
2013-08-27 20:20:00,68.2,67.0,29.78,NNE,17,1.0,1.0,96,0.00,,,0.99,Wunderground v.1.15,2013-08-28 00:20:00,
2013-08-27 20:24:00,68.1,66.6,29.78,NNE,17,0.0,1.0,95,0.00,,,0.99,Wunderground v.1.15,2013-08-28 00:24:00,
2013-08-27 20:26:00,68.1,66.6,29.78,NNE,17,0.0,1.0,95,0.00,,,0.99,Wunderground v.1.15,2013-08-28 00:26:00,
2013-08-27 20:30:00,68.0,66.5,29.78,NNE,17,0.0,3.0,95,0.00,,,0.99,Wunderground v.1.15,2013-08-28 00:30:00,
2013-08-27 20:32:00,67.9,66.4,29.78,NNE,17,0.0,3.0,95,0.00,,,0.99,Wunderground v.1.15,2013-08-28 00:32:00,
2013-08-27 20:34:00,67.8,66.3,29.78,NNE,17,1.0,3.0,95,0.00,,,0.99,Wunderground v.1.15,2013-08-28 00:34:00,
2013-08-27 20:38:00,67.7,66.5,29.79,NNE,17,1.0,3.0,96,0.00,,,0.99,Wunderground v.1.15,2013-08-28 00:38:00,
2013-08-27 20:40:00,67.7,66.5,29.79,NNE,17,2.0,2.0,96,0.00,,,0.99,Wunderground v.1.15,2013-08-28 00:40:00,
2013-08-27 20:42:00,67.6,66.4,29.79,NNE,17,2.0,2.0,96,0.00,,,0.99,Wunderground v.1.15,2013-08-28 00:42:00,
2013-08-27 20:44:00,67.6,66.4,29.79,NNE,17,2.0,2.0,96,0.00,,,0.99,Wunderground v.1.15,2013-08-28 00:44:00,
2013-08-27 20:46:00,67.6,66.4,29.79,NNE,17,2.0,2.0,96,0.00,,,0.99,Wunderground v.1.15,2013-08-28 00:46:00,
2013-08-27 20:48:00,67.6,66.4,29.79,NNE,17,1.0,2.0,96,0.00,,,0.99,Wunderground v.1.15,2013-08-28 00:48:00,
2013-08-27 20:52:00,67.6,66.4,29.80,NNE,17,1.0,2.0,96,0.00,,,0.99,Wunderground v.1.15,2013-08-28 00:52:00,
2013-08-27 20:56:00,67.6,66.4,29.80,NNE,17,1.0,2.0,96,0.00,,,0.99,Wunderground v.1.15,2013-08-28 00:56:00,
2013-08-27 20:58:00,67.6,66.4,29.80,NNE,17,0.0,2.0,96,0.00,,,0.99,Wunderground v.1.15,2013-08-28 00:58:00,
2013-08-27 21:00:00,67.6,66.4,29.80,NNE,17,0.0,0.0,96,0.00,,,0.99,Wunderground v.1.15,2013-08-28 01:00:00,
2013-08-27 21:04:00,67.6,66.4,29.80,NNE,17,0.0,2.0,96,0.00,,,0.99,Wunderground v.1.15,2013-08-28 01:04:00,
2013-08-27 21:06:00,67.6,66.4,29.80,NNE,17,0.0,2.0,96,0.00,,,0.99,Wunderground v.1.15,2013-08-28 01:06:00,
2013-08-27 21:08:00,67.6,66.4,29.80,NNE,17,0.0,2.0,96,0.00,,,0.99,Wunderground v.1.15,2013-08-28 01:08:00,
2013-08-27 21:12:00,67.6,66.4,29.80,NNE,17,0.0,0.0,96,0.00,,,0.99,Wunderground v.1.15,2013-08-28 01:12:00,
2013-08-27 21:14:00,67.6,66.4,29.80,NNE,17,0.0,0.0,96,0.00,,,0.99,Wunderground v.1.15,2013-08-28 01:14:00,
2013-08-27 21:18:00,67.7,66.5,29.80,NNE,17,0.0,0.0,96,0.00,,,0.99,Wunderground v.1.15,2013-08-28 01:18:00,
2013-08-27 21:20:00,67.7,66.5,29.80,NNE,17,0.0,0.0,96,0.00,,,0.99,Wunderground v.1.15,2013-08-28 01:20:00,
2013-08-27 21:26:00,67.7,66.5,29.80,NNE,17,0.0,2.0,96,0.00,,,0.99,Wunderground v.1.15,2013-08-28 01:26:00,
2013-08-27 21:28:00,67.8,66.6,29.80,NNE,17,0.0,2.0,96,0.00,,,0.99,Wunderground v.1.15,2013-08-28 01:28:00,
2013-08-27 21:30:00,67.8,66.6,29.80,NNE,17,0.0,0.0,96,0.00,,,0.99,Wunderground v.1.15,2013-08-28 01:30:00,
2013-08-27 21:32:00,67.9,66.7,29.80,NNE,17,0.0,0.0,96,0.00,,,0.99,Wunderground v.1.15,2013-08-28 01:32:00,
2013-08-27 21:36:00,68.0,66.8,29.81,NNE,17,1.0,3.0,96,0.00,,,0.99,Wunderground v.1.15,2013-08-28 01:36:00,
2013-08-27 21:38:00,68.0,66.8,29.81,NNE,17,1.0,3.0,96,0.00,,,0.99,Wunderground v.1.15,2013-08-28 01:38:00,
2013-08-27 21:40:00,68.0,66.8,29.81,NNE,17,1.0,1.0,96,0.00,,,0.99,Wunderground v.1.15,2013-08-28 01:40:00,
2013-08-27 21:44:00,68.1,66.9,29.81,NNE,17,0.0,1.0,96,0.00,,,0.99,Wunderground v.1.15,2013-08-28 01:44:00,
2013-08-27 21:46:00,68.1,66.9,29.81,NNE,17,0.0,1.0,96,0.00,,,0.99,Wunderground v.1.15,2013-08-28 01:46:00,
2013-08-27 21:48:00,68.1,66.9,29.81,NNE,17,0.0,1.0,96,0.00,,,0.99,Wunderground v.1.15,2013-08-28 01:48:00,
2013-08-27 21:50:00,68.1,66.9,29.81,NNE,17,0.0,0.0,96,0.00,,,0.99,Wunderground v.1.15,2013-08-28 01:50:00,
2013-08-27 21:54:00,68.1,66.9,29.80,NNE,17,0.0,0.0,96,0.00,,,0.99,Wunderground v.1.15,2013-08-28 01:54:00,
2013-08-27 21:56:00,68.2,67.0,29.80,NNE,17,0.0,0.0,96,0.00,,,0.99,Wunderground v.1.15,2013-08-28 01:56:00,
2013-08-27 21:58:00,68.2,67.0,29.80,NNE,17,0.0,0.0,96,0.00,,,0.99,Wunderground v.1.15,2013-08-28 01:58:00,
2013-08-27 22:02:00,68.2,67.0,29.80,NNE,17,0.0,0.0,96,0.00,,,0.99,Wunderground v.1.15,2013-08-28 02:02:00,
2013-08-27 22:04:00,68.1,66.9,29.80,NNE,17,0.0,0.0,96,0.00,,,0.99,Wunderground v.1.15,2013-08-28 02:04:00,
2013-08-27 22:08:00,68.2,67.0,29.82,NNE,17,0.0,0.0,96,0.00,,,0.99,Wunderground v.1.15,2013-08-28 02:08:00,
2013-08-27 22:12:00,68.2,67.0,29.82,NNE,17,0.0,0.0,96,0.00,,,0.99,Wunderground v.1.15,2013-08-28 02:12:00,
2013-08-27 22:14:00,68.2,67.0,29.82,NNE,17,0.0,0.0,96,0.00,,,0.99,Wunderground v.1.15,2013-08-28 02:14:00,
2013-08-27 22:16:00,68.2,67.0,29.82,NNE,17,0.0,0.0,96,0.00,,,0.99,Wunderground v.1.15,2013-08-28 02:16:00,
2013-08-27 22:18:00,68.2,67.0,29.82,NNE,17,0.0,0.0,96,0.00,,,0.99,Wunderground v.1.15,2013-08-28 02:18:00,
2013-08-27 22:22:00,68.2,67.0,29.82,NNE,17,0.0,0.0,96,0.00,,,0.99,Wunderground v.1.15,2013-08-28 02:22:00,
2013-08-27 22:26:00,68.2,67.0,29.82,NNE,17,0.0,0.0,96,0.00,,,0.99,Wunderground v.1.15,2013-08-28 02:26:00,
2013-08-27 22:28:00,68.2,67.0,29.82,NNE,17,0.0,0.0,96,0.00,,,0.99,Wunderground v.1.15,2013-08-28 02:28:00,
2013-08-27 22:30:00,68.2,67.0,29.82,NNE,17,0.0,0.0,96,0.00,,,0.99,Wunderground v.1.15,2013-08-28 02:30:00,
2013-08-27 22:32:00,68.2,67.0,29.82,NNE,17,0.0,0.0,96,0.00,,,0.99,Wunderground v.1.15,2013-08-28 02:32:00,
2013-08-27 22:34:00,68.2,67.0,29.82,NNE,17,0.0,0.0,96,0.00,,,0.99,Wunderground v.1.15,2013-08-28 02:34:00,
2013-08-27 22:36:00,68.2,67.0,29.82,NNE,17,0.0,0.0,96,0.00,,,0.99,Wunderground v.1.15,2013-08-28 02:36:00,
2013-08-27 22:38:00,68.2,67.0,29.82,NNE,17,0.0,1.0,96,0.00,,,0.99,Wunderground v.1.15,2013-08-28 02:38:00,
2013-08-27 22:40:00,68.2,67.0,29.82,NNE,17,0.0,0.0,96,0.00,,,0.99,Wunderground v.1.15,2013-08-28 02:40:00,
2013-08-27 22:46:00,68.1,66.9,29.82,NNE,17,0.0,1.0,96,0.00,,,0.99,Wunderground v.1.15,2013-08-28 02:46:00,
2013-08-27 22:50:00,68.0,66.8,29.82,NNE,17,0.0,0.0,96,0.00,,,0.99,Wunderground v.1.15,2013-08-28 02:50:00,
2013-08-27 22:54:00,68.1,66.9,29.82,NNE,17,0.0,0.0,96,0.00,,,0.99,Wunderground v.1.15,2013-08-28 02:54:00,
2013-08-27 22:58:00,68.1,66.9,29.82,NNE,17,0.0,0.0,96,0.00,,,0.99,Wunderground v.1.15,2013-08-28 02:58:00,
2013-08-27 23:00:00,68.1,66.9,29.82,NNE,17,0.0,0.0,96,0.00,,,0.99,Wunderground v.1.15,2013-08-28 03:00:00,
2013-08-27 23:04:00,68.1,66.9,29.82,NNE,17,0.0,0.0,96,0.00,,,0.99,Wunderground v.1.15,2013-08-28 03:04:00,
2013-08-27 23:06:00,68.1,66.9,29.82,NNE,17,0.0,0.0,96,0.00,,,0.99,Wunderground v.1.15,2013-08-28 03:06:00,
2013-08-27 23:12:00,68.1,66.9,29.82,NNE,17,0.0,0.0,96,0.00,,,0.99,Wunderground v.1.15,2013-08-28 03:12:00,
2013-08-27 23:18:00,68.1,66.9,29.82,NNE,17,0.0,0.0,96,0.00,,,0.99,Wunderground v.1.15,2013-08-28 03:18:00,
2013-08-27 23:20:00,68.1,66.9,29.82,NNE,17,0.0,1.0,96,0.00,,,0.99,Wunderground v.1.15,2013-08-28 03:20:00,
2013-08-27 23:22:00,68.1,66.9,29.82,NNE,17,0.0,1.0,96,0.00,,,0.99,Wunderground v.1.15,2013-08-28 03:22:00,
2013-08-27 23:24:00,68.1,66.9,29.82,NNE,17,0.0,1.0,96,0.00,,,0.99,Wunderground v.1.15,2013-08-28 03:24:00,
2013-08-27 23:26:00,68.1,66.9,29.82,NNE,17,0.0,1.0,96,0.00,,,0.99,Wunderground v.1.15,2013-08-28 03:26:00,
2013-08-27 23:28:00,68.1,66.9,29.82,NNE,17,0.0,1.0,96,0.00,,,0.99,Wunderground v.1.15,2013-08-28 03:28:00,
2013-08-27 23:34:00,68.0,67.1,29.82,NNE,17,0.0,0.0,97,0.00,,,0.99,Wunderground v.1.15,2013-08-28 03:34:00,
2013-08-27 23:36:00,68.0,67.1,29.82,NNE,17,0.0,0.0,97,0.00,,,0.99,Wunderground v.1.15,2013-08-28 03:36:00,
2013-08-27 23:42:00,68.0,67.1,29.82,NNE,17,0.0,0.0,97,0.00,,,0.99,Wunderground v.1.15,2013-08-28 03:42:00,
2013-08-27 23:44:00,68.0,67.1,29.82,NNE,17,0.0,0.0,97,0.00,,,0.99,Wunderground v.1.15,2013-08-28 03:44:00,
2013-08-27 23:46:00,68.0,67.1,29.82,NNE,17,0.0,0.0,97,0.00,,,0.99,Wunderground v.1.15,2013-08-28 03:46:00,
2013-08-27 23:48:00,68.0,67.1,29.82,NNE,17,0.0,0.0,97,0.00,,,0.99,Wunderground v.1.15,2013-08-28 03:48:00,
2013-08-27 23:54:00,68.0,67.1,29.80,NNE,17,0.0,0.0,97,0.00,,,0.99,Wunderground v.1.15,2013-08-28 03:54:00,
2013-08-27 23:56:00,68.0,67.1,29.80,NNE,17,0.0,0.0,97,0.00,,,0.99,Wunderground v.1.15,2013-08-28 03:56:00,